Weather Roundup
Issued by NWS

Home | Current Version | Previous Version | Graphics & Text | Print | Product List | Glossary Off
Versions: 1 2 3 4 5 6 7 8 9 10 11 12 13 14 15 16 17 18 19 20 21 22 23 24 25 26 27 28 29 30 31 32 33 34 35 36 37 38 39 40 41 42 43 44 45 46 47 48 49 50

000
NZUS93 KARX 261459
HRRWXR

CURRENT HOURLY OBSERVATIONS ACROSS
MUCH OF THE UPPER MISSISSIPPI VALLEY
NATIONAL WEATHER SERVICE LA CROSSE WI
900 AM CST THU FEB 26 2015


...SOUTHEAST MINNESOTA...


CITY           SKY/WX    TMP DP  RH WIND       PRES   REMARKS
ROCHESTER      SUNNY     -3 -12  65 N14       30.35R WCI -22
ROCHESTER/MAYO FAIR      -2 -13  58 NW10G16   30.37R WCI -19
WINONA         SUNNY      3  -8  60 N6        30.41R WCI  -8
AUSTIN         SUNNY     -4 -13  65 NW9       30.37R WCI -20
ALBERT LEA     SUNNY     -4 -11  71 NW8       30.38R WCI -19
DODGE CENTER   MOSUNNY   -4 -11  71 N12       30.35R WCI -22
PRESTON        SUNNY     -2 -12  63 N12       30.34R WCI -20
OWATONNA       SUNNY     -6 -13  71 NW8       30.40R WCI -21
FARIBAULT      SUNNY      0 -11  60 NW8       30.41R WCI -15
$$

...ELSEWHERE IN MINNESOTA...


CITY           SKY/WX    TMP DP  RH WIND       PRES   REMARKS
MINNEAPOLIS    SUNNY      0 -11  59 N10       30.45R WCI -16
INTNL FALLS    MOSUNNY  -14 -20  74 NW6       30.41R WCI -28
DULUTH         SUNNY     -8 -16  67 NW9       30.34R WCI -25
RED WING       SUNNY      1 -15  46 CALM      30.42R
REDWOOD FALLS  SUNNY     -5 -13  68 NW9G20    30.48R WCI -22
MANKATO        SUNNY     -6 -11  77 NW12      30.43R WCI -24
FAIRMONT       SUNNY     -6 -11  77 NW15      30.41R WCI -27
$$

...SOUTHWEST WISCONSIN...


CITY           SKY/WX    TMP DP  RH WIND       PRES   REMARKS
LA CROSSE      SUNNY      4  -7  60 NW12      30.39R WCI -12
PRAIRIE DU CHI MOSUNNY   -1 -10  65 CALM      30.36R
BOSCOBEL       PTSUNNY    6  -7  54 VRB6      30.35R WCI  -4
LONE ROCK      NOT AVBL
PLATTEVILLE    SUNNY      3  -5  70 N15       30.27R WCI -16
FORT MC COY    SUNNY      2  -6  68 N8        30.35R WCI -12
VIROQUA        FAIR       0  -8  68 N8        30.28R WCI -14
WIS DELLS      NOT AVBL
$$

...ELSEWHERE IN WISCONSIN...


CITY           SKY/WX    TMP DP  RH WIND       PRES   REMARKS
MILWAUKEE      PTSUNNY    9  -1  64 N12       30.24R WCI  -6
MADISON        MOSUNNY    3  -7  63 N10       30.29R WCI -12
GREEN BAY      SUNNY      4  -5  66 N8        30.32R WCI  -9
EAU CLAIRE     NOT AVBL
BLACK RVR FLS  FAIR       1  -9  62 N6        30.36R WCI -10
MEDFORD        SUNNY     -6 -11  78 N5        30.27R WCI -17
WAUSAU         SUNNY     -2  -9  72 N7        30.28R WCI -15
WIS RAPIDS     SUNNY      1  -8  66 N7        30.33R WCI -12
MARSHFIELD     SUNNY      1  -8  66 N7        30.30R WCI -12
RICE LAKE      SUNNY     -4 -13  64 CALM      30.39R
$$

...NORTHEAST IOWA...


CITY           SKY/WX    TMP DP  RH WIND       PRES   REMARKS
DECORAH        SUNNY      0 -11  60 N7G14     30.32R WCI -13
MASON CITY     SUNNY     -5 -12  72 NW14      30.40R WCI -25
CHARLES CITY   SUNNY     -6 -15  65 N10       30.37R WCI -23
OELWEIN        SUNNY     -4 -13  65 N12       30.33R WCI -22
$$

...ELSEWHERE IN IOWA...


CITY           SKY/WX    TMP DP  RH WIND       PRES   REMARKS
DES MOINES     MOSUNNY    4  -9  55 N14       30.41R WCI -14
IOWA CITY      SUNNY      6  -5  60 N14       30.34R WCI -11
FORT DODGE     SUNNY     -4 -11  71 N12G17    30.43R WCI -22
$$

...NORTHERN ILLINOIS...


CITY           SKY/WX    TMP DP  RH WIND       PRES   REMARKS
CHICAGO-OHARE  LGT SNOW  16   8  71 NE20      30.19R BLWGSNOWWCI  -1
CHICAGO-MIDWAY LGT SNOW  18  11  74 NE18      30.19R BLWGSNOWWCI   2
MOLINE         CLOUDY    11   0  61 N8        30.27R WCI  -1
ROCKFORD       CLOUDY     9   0  67 N13       30.26R WCI  -7
PEORIA         LGT SNOW  16   9  74 N12       30.21R WCI   3
$$

NOTE: "FAIR" INDICATES FEW OR NO CLOUDS BELOW 12,000 FEET WITH NO
SIGNIFICANT WEATHER AND/OR OBSTRUCTIONS TO VISIBILITY. WIND
SPEEDS ARE IN MILES-PER-HOUR.



USA.gov is the U.S. government's official web portal to all federal, state and local government web resources and services.